This demonstration page uses our WeatherBlox Daily Observations layout. Learn more.

Left ArrowRight Arrow

40.92501, -98.34201

Hourly Observations for February 4, 2022

Temp ( °F °C ) Dew Point ( °F °C ) Humidity (%) Winds ( mph kmh ) Pressure ( in mb ) Visibility ( mi km ) Precip ( " mm )
12:53 am 00:53 Clear 14 -10 -6 -21.1 40 40 SW 15 24 30.50 1033 10 16 0.00 0.00
1:53 am 01:53 Clear 14 -10 -3 -19.4 47 47 SW 12 19 30.48 1032 10 16 0.00 0.00
2:53 am 02:53 Clear 13 -10.6 -1 -18.3 54 54 WSW 14 22 30.46 1032 10 16 0.00 0.00
3:53 am 03:53 Clear 11 -11.7 -1 -18.3 58 58 WSW 12 19 30.45 1031 10 16 0.00 0.00
4:53 am 04:53 Clear 10 -12.2 0 -17.8 63 63 WSW 12 19 30.45 1031 10 16 0.00 0.00
5:53 am 05:53 Clear 9 -12.8 0 -17.8 66 66 W 10 17 30.45 1031 10 16 0.00 0.00
6:53 am 06:53 Clear 10 -12.2 1 -17.2 67 67 WSW 9 15 30.45 1031 10 16 0.00 0.00
7:53 am 07:53 Cloudy 14 -10 2 -16.7 58 58 W 13 20 30.48 1032 10 16 0.00 0.00
8:53 am 08:53 Cloudy 19 -7.2 5 -15 54 54 NW 10 17 30.51 1033 10 16 0.00 0.00
9:53 am 09:53 Mostly Cloudy 25 -3.9 8 -13.3 48 48 NNW 15 24 30.51 1033 10 16 0.00 0.00
10:53 am 10:53 Mostly Cloudy 28 -2.2 10 -12.2 47 47 N 17 28 30.53 1034 10 16 0.00 0.00
11:53 am 11:53 Sunny 33 0.6 12 -11.1 42 42 NNW 15 24 30.53 1034 10 16 0.00 0.00
12:53 pm 12:53 Sunny 32 0 11 -11.7 41 41 N 18 30 30.52 1033 10 16 0.00 0.00
1:53 pm 13:53 Sunny 32 0 9 -12.8 38 38 NNW 17 28 30.51 1033 10 16 0.00 0.00
2:53 pm 14:53 Sunny 34 1.1 9 -12.8 35 35 NNW 15 24 30.51 1033 10 16 0.00 0.00
3:53 pm 15:53 Sunny 33 0.6 9 -12.8 36 36 NW 8 13 30.52 1034 10 16 0.00 0.00
4:53 pm 16:53 Sunny 32 0 9 -12.8 38 38 N 6 9 30.52 1034 10 16 0.00 0.00
5:53 pm 17:53 Sunny 26 -3.3 7 -13.9 44 44 NE 6 9 30.52 1034 10 16 0.00 0.00
6:53 pm 18:53 Clear 22 -5.6 6 -14.4 50 50 ESE 7 11 30.52 1034 10 16 0.00 0.00
7:53 pm 19:53 Clear 22 -5.6 6 -14.4 50 50 ESE 6 9 30.51 1033 10 16 0.00 0.00
8:53 pm 20:53 Clear 19 -7.2 4 -15.6 51 51 ESE 8 13 30.51 1033 10 16 0.00 0.00
9:53 pm 21:53 Clear 17 -8.3 3 -16.1 54 54 ESE 6 9 30.50 1033 10 16 0.00 0.00
10:53 pm 22:53 Clear 19 -7.2 0 -17.8 43 43 SSE 10 17 30.47 1032 10 16 0.00 0.00
11:53 pm 23:53 Clear 19 -7.2 2 -16.7 47 47 SSE 15 24 30.44 1031 10 16 0.00 0.00

Powered by AerisWeather